Weather History for Palmdale, CA

Change the Weather History Date:

Monday, May 2, 2011

  Actual Average Record
Temperature  
Mean Temperature 60 °F 63 °F  
Max Temperature 81 °F 78 °F 95 °F (1966)
Min Temperature 38 °F 48 °F 32 °F (1953)
Degree Days  
Heating Degree Days 5 4  
Month to date heating degree days 15 8  
Since 1 July heating degree days 2886 2858  
Cooling Degree Days 0 2  
Month to date cooling degree days 0 4  
Year to date cooling degree days 6 27  
Growing Degree Days 10 (Base 50)    
Moisture  
Dew Point 16 °F    
Average Humidity 28    
Maximum Humidity 50    
Minimum Humidity 5    
Precipitation  
Precipitation 0.00 in 0.02 in 0.43 in (1980)
Month to date precipitation 0.00 0.03  
Year to date precipitation 2.34 5.01  
Since 1 July precipitation 7.72 7.99  
Snow  
Snow 0.00 in - 0.00 in (1973)
Month to date snowfall 0.0  
Since 1 July snowfall 0.0  
Snow Depth 0.00 in    
Sea Level Pressure  
Sea Level Pressure 30.22 in    
Wind  
Wind Speed 7 mph (NNW)    
Max Wind Speed 17 mph    
Max Gust Speed 23 mph    
Visibility 10 miles    
Events      
T = Trace of Precipitation, MM = Missing Value Source: NWS Daily Summary

Daily Weather History Graph

Daily Weather History Graph

Search for Another Location

Airport:

Trip Planner

Search our weather history database for the weather conditions in past years. The results will help you decide how hot, cold, wet, or windy it might be!

Date:

Astronomy

May. 02, 2011 Rise Set
Actual Time 6:01 AM PDT 7:37 PM PDT
Civil Twilight 5:34 AM PDT 8:04 PM PDT
Nautical Twilight 5:01 AM PDT 8:37 PM PDT
Astronomical Twilight 4:27 AM PDT 9:11 PM PDT
Moon 5:23 AM PDT (5/2) 7:28 PM PDT (5/2)
Length of Visible Light 14h 30m
Length of Day
13h 36m
Waning Crescent, 0% of the Moon is Illuminated
May 2
Waning Crescent
May 2
New
May 10
First Quarter
May 17
Full
May 24
Last Quarter

Hourly Weather History & Observations

Time (PDT) Temp. Windchill Dew Point Humidity Pressure Visibility Wind Dir Wind Speed Gust Speed Precip Events Conditions
12:53 AM 46.4 °F 44.3 °F 23.0 °F 40% 30.24 in 10.0 mi SW 4.6 mph - N/A   Clear
1:53 AM 45.0 °F 41.8 °F 21.9 °F 40% 30.21 in 10.0 mi South 5.8 mph - N/A   Clear
2:53 AM 43.0 °F 38.8 °F 25.0 °F 49% 30.21 in 10.0 mi South 6.9 mph - N/A   Clear
3:53 AM 42.1 °F 40.2 °F 23.0 °F 47% 30.22 in 10.0 mi WSW 3.5 mph - N/A   Clear
4:53 AM 39.9 °F 34.5 °F 21.0 °F 47% 30.24 in 10.0 mi SSW 8.1 mph - N/A   Clear
5:53 AM 39.0 °F 35.7 °F 23.0 °F 53% 30.25 in 10.0 mi South 4.6 mph - N/A   Clear
6:53 AM 44.1 °F 42.5 °F 24.1 °F 45% 30.28 in 10.0 mi SSW 3.5 mph - N/A   Clear
7:53 AM 54.0 °F - 23.0 °F 30% 30.29 in 10.0 mi NW 4.6 mph - N/A   Clear
8:53 AM 57.9 °F - 24.1 °F 27% 30.30 in 10.0 mi NNW 3.5 mph - N/A   Clear
9:53 AM 64.0 °F - 21.0 °F 19% 30.30 in 10.0 mi NNE 4.6 mph - N/A   Clear
10:53 AM 70.0 °F - 17.1 °F 13% 30.29 in 10.0 mi NNE 10.4 mph - N/A   Clear
11:53 AM 73.9 °F - 10.9 °F 9% 30.27 in 10.0 mi NE 12.7 mph 16.1 mph N/A   Clear
12:53 PM 75.9 °F - 7.0 °F 7% 30.25 in 10.0 mi East 8.1 mph 20.7 mph N/A   Clear
1:53 PM 78.1 °F - 7.0 °F 7% 30.23 in 10.0 mi NE 10.4 mph 20.7 mph N/A   Clear
2:53 PM 79.0 °F - 6.1 °F 6% 30.21 in 10.0 mi NE 8.1 mph - N/A   Clear
3:53 PM 80.1 °F - 7.0 °F 6% 30.18 in 10.0 mi Variable 5.8 mph 16.1 mph N/A   Clear
4:53 PM 79.0 °F - 6.1 °F 6% 30.17 in 10.0 mi NNE 10.4 mph - N/A   Clear
5:53 PM 79.0 °F - 3.9 °F 6% 30.15 in 10.0 mi NNE 3.5 mph - N/A   Clear
6:53 PM 75.9 °F - 3.9 °F 6% 30.14 in 10.0 mi NNE 5.8 mph - N/A   Clear
7:53 PM 71.1 °F - 9.0 °F 9% 30.13 in 10.0 mi NNE 5.8 mph - N/A   Clear
8:53 PM 63.0 °F - 15.1 °F 16% 30.16 in 10.0 mi WNW 9.2 mph - N/A   Clear
9:53 PM 57.9 °F - 21.9 °F 25% 30.18 in 10.0 mi West 4.6 mph - N/A   Clear
10:53 PM 57.9 °F - 23.0 °F 26% 30.18 in 10.0 mi SSW 4.6 mph - N/A   Clear
11:53 PM 55.0 °F - 24.1 °F 30% 30.17 in 10.0 mi SSW 5.8 mph - N/A   Clear